Back to Top

Language: 

My Weather Underground Personal Weather Station Historical Data with Graphs...

Delerius Weather Station Historical Data
Daily Summary for January 19, 2017 Units:  English    Metric   Both
« Previous Day
Next Day »
Daily Weekly Monthly Yearly Custom
  High: Low: Average:
Temperature: 46.0 °F 43.6 °F 44.9 °F
Dew Point: 43.1 °F 40.9 °F 42.3 °F
Humidity: 94 % 86 % 90 %
Wind Speed: 5.0 mph 0.0 mph 0.5 mph
Wind Gust: 9.0 mph - -
Wind:- - WNW
Pressure: 30.65 in 30.59 in -
Precipitation: 0.00 in    
Historical Graphs
 
 
Tabular Data for January 19, 2017
Time Temperature Dew Point Pressure Wind Wind Speed Wind Gust Humidity Rainfall Rate (Hourly) solar Conditions
00:00 45.4 °F 42.9 °F 30.63 in WNW 4.0 mph 4.0 mph 91 % 0.00 in 0 W/m2
00:01 45.3 °F 42.8 °F 30.63 in WNW 1.0 mph -999.0 mph 91 % 0.00 in 0 W/m2
00:05 45.4 °F 42.9 °F 30.63 in WNW 2.0 mph 4.0 mph 91 % 0.00 in 0 W/m2
00:06 45.3 °F 42.8 °F 30.63 in WNW 1.0 mph -999.0 mph 91 % 0.00 in 0 W/m2
00:11 45.3 °F 42.8 °F 30.63 in WNW 1.0 mph -999.0 mph 91 % 0.00 in 0 W/m2
00:15 45.3 °F 42.8 °F 30.63 in WNW 1.0 mph 1.0 mph 91 % 0.00 in 0 W/m2
00:16 45.3 °F 42.8 °F 30.63 in WNW 1.0 mph -999.0 mph 91 % 0.00 in 0 W/m2
00:20 45.3 °F 42.8 °F 30.63 in WNW 2.0 mph 2.0 mph 91 % 0.00 in 0 W/m2
00:21 45.3 °F 42.8 °F 30.63 in WNW 1.0 mph -999.0 mph 91 % 0.00 in 0 W/m2
00:26 45.3 °F 42.8 °F 30.63 in WNW 2.0 mph -999.0 mph 91 % 0.00 in 0 W/m2
00:30 45.3 °F 42.8 °F 30.63 in West 3.0 mph 4.0 mph 91 % 0.00 in 0 W/m2
00:31 45.3 °F 42.8 °F 30.63 in WNW 2.0 mph -999.0 mph 91 % 0.00 in 0 W/m2
00:35 45.2 °F 42.7 °F 30.63 in WNW 4.0 mph 7.0 mph 91 % 0.00 in 0 W/m2
00:36 45.3 °F 42.8 °F 30.63 in WNW 2.0 mph -999.0 mph 91 % 0.00 in 0 W/m2
00:40 45.2 °F 42.7 °F 30.63 in WNW 5.0 mph 7.0 mph 91 % 0.00 in 0 W/m2
00:41 45.2 °F 42.7 °F 30.63 in WNW 4.0 mph -999.0 mph 91 % 0.00 in 0 W/m2
00:45 45.2 °F 42.7 °F 30.63 in WNW 5.0 mph 7.0 mph 91 % 0.00 in 0 W/m2
00:46 45.2 °F 42.7 °F 30.63 in WNW 4.0 mph -999.0 mph 91 % 0.00 in 0 W/m2
00:50 45.2 °F 42.7 °F 30.63 in NW 3.0 mph 3.0 mph 91 % 0.00 in 0 W/m2
00:51 45.2 °F 42.7 °F 30.63 in WNW 4.0 mph -999.0 mph 91 % 0.00 in 0 W/m2
00:55 45.2 °F 42.7 °F 30.62 in NW 1.0 mph 3.0 mph 91 % 0.00 in 0 W/m2
00:56 45.2 °F 42.7 °F 30.62 in NW 1.0 mph -999.0 mph 91 % 0.00 in 0 W/m2
01:01 45.2 °F 42.7 °F 30.62 in NW 1.0 mph -999.0 mph 91 % 0.00 in 0 W/m2
01:05 45.2 °F 42.7 °F 30.63 in Calm   9.0 mph 91 % 0.00 in 0 W/m2
01:06 45.2 °F 42.7 °F 30.62 in NW 1.0 mph -999.0 mph 91 % 0.00 in 0 W/m2
01:11 45.2 °F 42.7 °F 30.63 in Calm   -999.0 mph 91 % 0.00 in 0 W/m2
01:15 45.1 °F 42.6 °F 30.63 in Calm   9.0 mph 91 % 0.00 in 0 W/m2
01:16 45.2 °F 42.7 °F 30.63 in Calm   -999.0 mph 91 % 0.00 in 0 W/m2
01:20 45.1 °F 42.6 °F 30.63 in NW 1.0 mph 1.0 mph 91 % 0.00 in 0 W/m2
01:21 45.2 °F 42.7 °F 30.63 in Calm   -999.0 mph 91 % 0.00 in 0 W/m2
01:25 45.1 °F 42.6 °F 30.63 in NW 1.0 mph 9.0 mph 91 % 0.00 in 0 W/m2
01:26 45.1 °F 42.6 °F 30.63 in Calm   -999.0 mph 91 % 0.00 in 0 W/m2
01:30 45.1 °F 42.6 °F 30.63 in Calm   9.0 mph 91 % 0.00 in 0 W/m2
01:31 45.1 °F 42.6 °F 30.63 in Calm   -999.0 mph 91 % 0.00 in 0 W/m2
01:35 45.1 °F 42.6 °F 30.63 in Calm   9.0 mph 91 % 0.00 in 0 W/m2
01:36 45.1 °F 42.6 °F 30.63 in Calm   -999.0 mph 91 % 0.00 in 0 W/m2
01:41 45.0 °F 42.5 °F 30.63 in NW 1.0 mph -999.0 mph 91 % 0.00 in 0 W/m2
01:45 45.1 °F 42.6 °F 30.63 in NW 1.0 mph 9.0 mph 91 % 0.00 in 0 W/m2
01:46 45.0 °F 42.5 °F 30.63 in NW 1.0 mph -999.0 mph 91 % 0.00 in 0 W/m2
01:50 45.1 °F 42.9 °F 30.63 in WNW 2.0 mph 9.0 mph 92 % 0.00 in 0 W/m2
01:51 45.0 °F 42.5 °F 30.63 in NW 1.0 mph -999.0 mph 91 % 0.00 in 0 W/m2
01:55 45.1 °F 42.9 °F 30.63 in WNW 3.0 mph 9.0 mph 92 % 0.00 in 0 W/m2
01:56 45.1 °F 42.9 °F 30.63 in WNW 2.0 mph -999.0 mph 92 % 0.00 in 0 W/m2
02:00 45.1 °F 42.9 °F 30.63 in WNW 2.0 mph 2.0 mph 92 % 0.00 in 0 W/m2
02:01 45.1 °F 42.9 °F 30.63 in WNW 2.0 mph -999.0 mph 92 % 0.00 in 0 W/m2
02:05 45.1 °F 42.6 °F 30.63 in WNW 2.0 mph 9.0 mph 91 % 0.00 in 0 W/m2
02:06 45.1 °F 42.9 °F 30.63 in WNW 2.0 mph -999.0 mph 92 % 0.00 in 0 W/m2
02:10 45.1 °F 42.6 °F 30.63 in WNW 2.0 mph 2.0 mph 91 % 0.00 in 0 W/m2
02:11 45.1 °F 42.6 °F 30.63 in WNW 1.0 mph -999.0 mph 91 % 0.00 in 0 W/m2
02:15 45.1 °F 42.6 °F 30.63 in Calm   9.0 mph 91 % 0.00 in 0 W/m2
02:16 45.1 °F 42.6 °F 30.63 in WNW 1.0 mph -999.0 mph 91 % 0.00 in 0 W/m2
02:20 45.1 °F 42.6 °F 30.62 in Calm   9.0 mph 91 % 0.00 in 0 W/m2
02:21 45.1 °F 42.6 °F 30.63 in WNW 1.0 mph -999.0 mph 91 % 0.00 in 0 W/m2
02:26 45.1 °F 42.9 °F 30.63 in Calm   -999.0 mph 92 % 0.00 in 0 W/m2
02:30 45.0 °F 42.5 °F 30.63 in Calm   9.0 mph 91 % 0.00 in 0 W/m2
02:31 45.1 °F 42.9 °F 30.63 in Calm   -999.0 mph 92 % 0.00 in 0 W/m2
02:35 45.1 °F 42.6 °F 30.63 in Calm   9.0 mph 91 % 0.00 in 0 W/m2
02:36 45.1 °F 42.9 °F 30.63 in Calm   -999.0 mph 92 % 0.00 in 0 W/m2
02:40 45.0 °F 42.8 °F 30.62 in Calm   9.0 mph 92 % 0.00 in 0 W/m2
02:41 45.0 °F 42.8 °F 30.63 in Calm   -999.0 mph 92 % 0.00 in 0 W/m2
02:45 45.0 °F 42.8 °F 30.63 in Calm   9.0 mph 92 % 0.00 in 0 W/m2
02:46 45.0 °F 42.8 °F 30.63 in Calm   -999.0 mph 92 % 0.00 in 0 W/m2
02:50 45.0 °F 42.8 °F 30.62 in Calm   9.0 mph 92 % 0.00 in 0 W/m2
02:51 45.0 °F 42.8 °F 30.63 in Calm   -999.0 mph 92 % 0.00 in 0 W/m2
02:55 44.9 °F 42.7 °F 30.62 in Calm   9.0 mph 92 % 0.00 in 0 W/m2
02:56 44.9 °F 42.7 °F 30.62 in Calm   -999.0 mph 92 % 0.00 in 0 W/m2
03:00 44.9 °F 42.7 °F 30.62 in Calm   9.0 mph 92 % 0.00 in 0 W/m2
03:01 44.9 °F 42.7 °F 30.62 in Calm   -999.0 mph 92 % 0.00 in 0 W/m2
03:06 44.9 °F 42.7 °F 30.62 in Calm   -999.0 mph 92 % 0.00 in 0 W/m2
03:10 44.8 °F 42.6 °F 30.62 in Calm   9.0 mph 92 % 0.00 in 0 W/m2
03:11 44.8 °F 42.6 °F 30.62 in Calm   -999.0 mph 92 % 0.00 in 0 W/m2
03:15 44.8 °F 42.6 °F 30.62 in Calm   9.0 mph 92 % 0.00 in 0 W/m2
03:16 44.8 °F 42.6 °F 30.62 in Calm   -999.0 mph 92 % 0.00 in 0 W/m2
03:20 44.7 °F 42.5 °F 30.62 in Calm   9.0 mph 92 % 0.00 in 0 W/m2
03:21 44.8 °F 42.6 °F 30.62 in Calm   -999.0 mph 92 % 0.00 in 0 W/m2
03:25 44.7 °F 42.8 °F 30.62 in Calm   9.0 mph 93 % 0.00 in 0 W/m2
03:26 44.8 °F 42.9 °F 30.62 in Calm   -999.0 mph 93 % 0.00 in 0 W/m2
03:30 44.7 °F 42.8 °F 30.62 in Calm   9.0 mph 93 % 0.00 in 0 W/m2
03:31 44.8 °F 42.9 °F 30.62 in Calm   -999.0 mph 93 % 0.00 in 0 W/m2
03:35 44.8 °F 42.9 °F 30.62 in Calm   9.0 mph 93 % 0.00 in 0 W/m2
03:36 44.8 °F 42.9 °F 30.62 in Calm   -999.0 mph 93 % 0.00 in 0 W/m2
03:41 44.7 °F 42.8 °F 30.62 in Calm   -999.0 mph 93 % 0.00 in 0 W/m2
03:45 44.7 °F 42.8 °F 30.62 in Calm   9.0 mph 93 % 0.00 in 0 W/m2
03:46 44.7 °F 42.8 °F 30.62 in Calm   -999.0 mph 93 % 0.00 in 0 W/m2
03:50 44.8 °F 42.9 °F 30.62 in WNW 1.0 mph 9.0 mph 93 % 0.00 in 0 W/m2
03:51 44.7 °F 42.8 °F 30.62 in Calm   -999.0 mph 93 % 0.00 in 0 W/m2
03:55 44.7 °F 42.8 °F 30.62 in WNW 2.0 mph 9.0 mph 93 % 0.00 in 0 W/m2
03:56 44.7 °F 42.8 °F 30.62 in WNW 1.0 mph -999.0 mph 93 % 0.00 in 0 W/m2
04:00 44.8 °F 42.9 °F 30.62 in WNW 1.0 mph 1.0 mph 93 % 0.00 in 0 W/m2
04:01 44.7 °F 42.8 °F 30.62 in WNW 1.0 mph -999.0 mph 93 % 0.00 in 0 W/m2
04:05 44.8 °F 42.9 °F 30.62 in Calm   9.0 mph 93 % 0.00 in 0 W/m2
04:06 44.7 °F 42.8 °F 30.62 in WNW 1.0 mph -999.0 mph 93 % 0.00 in 0 W/m2
04:10 44.8 °F 42.9 °F 30.62 in Calm   9.0 mph 93 % 0.00 in 0 W/m2
04:11 44.8 °F 42.9 °F 30.62 in Calm   -999.0 mph 93 % 0.00 in 0 W/m2
04:15 44.7 °F 42.8 °F 30.62 in Calm   9.0 mph 93 % 0.00 in 0 W/m2
04:16 44.8 °F 42.9 °F 30.62 in Calm   -999.0 mph 93 % 0.00 in 0 W/m2
04:21 44.8 °F 42.9 °F 30.62 in Calm   -999.0 mph 93 % 0.00 in 0 W/m2
04:25 44.7 °F 42.8 °F 30.62 in Calm   9.0 mph 93 % 0.00 in 0 W/m2
04:26 44.7 °F 42.8 °F 30.62 in Calm   -999.0 mph 93 % 0.00 in 0 W/m2
04:30 44.7 °F 42.8 °F 30.62 in Calm   9.0 mph 93 % 0.00 in 0 W/m2
04:31 44.7 °F 42.8 °F 30.62 in Calm   -999.0 mph 93 % 0.00 in 0 W/m2
04:35 44.7 °F 42.8 °F 30.62 in Calm   9.0 mph 93 % 0.00 in 0 W/m2
04:36 44.7 °F 42.8 °F 30.62 in Calm   -999.0 mph 93 % 0.00 in 0 W/m2
04:40 44.7 °F 42.8 °F 30.62 in Calm   9.0 mph 93 % 0.00 in 0 W/m2
04:41 44.7 °F 42.8 °F 30.61 in Calm   -999.0 mph 93 % 0.00 in 0 W/m2
04:45 44.7 °F 42.8 °F 30.61 in Calm   9.0 mph 93 % 0.00 in 0 W/m2
04:46 44.7 °F 42.8 °F 30.61 in Calm   -999.0 mph 93 % 0.00 in 0 W/m2
04:50 44.7 °F 42.8 °F 30.61 in West 1.0 mph 9.0 mph 93 % 0.00 in 0 W/m2
04:51 44.7 °F 42.8 °F 30.61 in Calm   -999.0 mph 93 % 0.00 in 0 W/m2
04:55 44.8 °F 42.9 °F 30.61 in WNW 2.0 mph 9.0 mph 93 % 0.00 in 0 W/m2
04:56 44.7 °F 42.8 °F 30.61 in WNW 2.0 mph -999.0 mph 93 % 0.00 in 0 W/m2
05:01 44.7 °F 42.8 °F 30.61 in WNW 2.0 mph -999.0 mph 93 % 0.00 in 0 W/m2
05:05 44.8 °F 42.9 °F 30.61 in West 3.0 mph 9.0 mph 93 % 0.00 in 0 W/m2
05:06 44.7 °F 42.8 °F 30.61 in WNW 2.0 mph -999.0 mph 93 % 0.00 in 0 W/m2
05:10 44.8 °F 42.9 °F 30.61 in West 2.0 mph 9.0 mph 93 % 0.00 in 0 W/m2
05:11 44.8 °F 42.9 °F 30.61 in West 2.0 mph -999.0 mph 93 % 0.00 in 0 W/m2
05:15 44.8 °F 42.9 °F 30.61 in WNW 1.0 mph 9.0 mph 93 % 0.00 in 0 W/m2
05:16 44.8 °F 42.9 °F 30.61 in West 2.0 mph -999.0 mph 93 % 0.00 in 0 W/m2
05:20 44.8 °F 42.9 °F 30.61 in WNW 1.0 mph 9.0 mph 93 % 0.00 in 0 W/m2
05:21 44.8 °F 42.9 °F 30.61 in West 2.0 mph -999.0 mph 93 % 0.00 in 0 W/m2
05:25 44.8 °F 42.9 °F 30.61 in WNW 2.0 mph 9.0 mph 93 % 0.00 in 0 W/m2
05:26 44.8 °F 42.9 °F 30.61 in WNW 1.0 mph -999.0 mph 93 % 0.00 in 0 W/m2
05:30 44.8 °F 42.9 °F 30.61 in WNW 1.0 mph 1.0 mph 93 % 0.00 in 0 W/m2
05:31 44.8 °F 42.9 °F 30.61 in WNW 1.0 mph -999.0 mph 93 % 0.00 in 0 W/m2
05:36 44.8 °F 42.9 °F 30.61 in WNW 1.0 mph -999.0 mph 93 % 0.00 in 0 W/m2
05:40 44.8 °F 42.9 °F 30.61 in West 1.0 mph 9.0 mph 93 % 0.00 in 0 W/m2
05:41 44.8 °F 42.9 °F 30.61 in West 2.0 mph -999.0 mph 93 % 0.00 in 0 W/m2
05:45 44.8 °F 42.9 °F 30.61 in West 2.0 mph 9.0 mph 93 % 0.00 in 0 W/m2
05:46 44.8 °F 42.9 °F 30.61 in West 2.0 mph -999.0 mph 93 % 0.00 in 0 W/m2
05:50 44.7 °F 42.8 °F 30.61 in West 2.0 mph 2.0 mph 93 % 0.00 in 0 W/m2
05:51 44.8 °F 42.9 °F 30.61 in West 2.0 mph -999.0 mph 93 % 0.00 in 0 W/m2
05:55 44.7 °F 42.8 °F 30.61 in West 1.0 mph 3.0 mph 93 % 0.00 in 0 W/m2
05:56 44.7 °F 42.8 °F 30.61 in West 1.0 mph -999.0 mph 93 % 0.00 in 0 W/m2
06:00 44.7 °F 42.8 °F 30.61 in West 1.0 mph 1.0 mph 93 % 0.00 in 0 W/m2
06:01 44.7 °F 42.8 °F 30.61 in West 1.0 mph -999.0 mph 93 % 0.00 in 0 W/m2
06:05 44.7 °F 42.8 °F 30.61 in Calm   9.0 mph 93 % 0.00 in 0 W/m2
06:06 44.7 °F 42.8 °F 30.61 in West 1.0 mph -999.0 mph 93 % 0.00 in 0 W/m2
06:10 44.7 °F 42.8 °F 30.61 in Calm   9.0 mph 93 % 0.00 in 0 W/m2
06:11 44.7 °F 42.8 °F 30.61 in Calm   -999.0 mph 93 % 0.00 in 0 W/m2
06:16 44.7 °F 42.8 °F 30.61 in Calm   -999.0 mph 93 % 0.00 in 0 W/m2
06:20 44.6 °F 42.7 °F 30.61 in Calm   9.0 mph 93 % 0.00 in 0 W/m2
06:21 44.7 °F 42.8 °F 30.61 in Calm   -999.0 mph 93 % 0.00 in 0 W/m2
06:25 44.6 °F 42.7 °F 30.61 in Calm   9.0 mph 93 % 0.00 in 0 W/m2
06:26 44.6 °F 42.7 °F 30.62 in Calm   -999.0 mph 93 % 0.00 in 0 W/m2
06:30 44.6 °F 42.7 °F 30.62 in Calm   9.0 mph 93 % 0.00 in 0 W/m2
06:31 44.6 °F 42.7 °F 30.62 in Calm   -999.0 mph 93 % 0.00 in 0 W/m2
06:35 44.6 °F 43.0 °F 30.62 in Calm   9.0 mph 94 % 0.00 in 0 W/m2
06:36 44.6 °F 42.7 °F 30.62 in Calm   -999.0 mph 93 % 0.00 in 0 W/m2
06:40 44.6 °F 42.7 °F 30.62 in Calm   9.0 mph 93 % 0.00 in 0 W/m2
06:41 44.6 °F 42.7 °F 30.62 in Calm   -999.0 mph 93 % 0.00 in 0 W/m2
06:45 44.5 °F 42.6 °F 30.62 in Calm   9.0 mph 93 % 0.00 in 0 W/m2
06:46 44.6 °F 42.7 °F 30.62 in Calm   -999.0 mph 93 % 0.00 in 0 W/m2
06:51 44.6 °F 42.7 °F 30.62 in Calm   -999.0 mph 93 % 0.00 in 0 W/m2
06:55 44.5 °F 42.9 °F 30.62 in Calm   9.0 mph 94 % 0.00 in 0 W/m2
06:56 44.5 °F 42.9 °F 30.62 in Calm   -999.0 mph 94 % 0.00 in 0 W/m2
07:00 44.5 °F 42.9 °F 30.62 in Calm   9.0 mph 94 % 0.00 in 0 W/m2
07:01 44.5 °F 42.9 °F 30.62 in Calm   -999.0 mph 94 % 0.00 in 0 W/m2
07:05 44.4 °F 42.8 °F 30.62 in Calm   9.0 mph 94 % 0.00 in 0 W/m2
07:06 44.5 °F 42.9 °F 30.62 in Calm   -999.0 mph 94 % 0.00 in 0 W/m2
07:10 44.4 °F 42.8 °F 30.62 in Calm   9.0 mph 94 % 0.00 in 0 W/m2
07:11 44.4 °F 42.8 °F 30.62 in Calm   -999.0 mph 94 % 0.00 in 0 W/m2
07:15 44.4 °F 42.8 °F 30.62 in Calm   9.0 mph 94 % 0.00 in 0 W/m2
07:16 44.4 °F 42.8 °F 30.62 in Calm   -999.0 mph 94 % 0.00 in 0 W/m2
07:20 44.3 °F 42.7 °F 30.62 in Calm   9.0 mph 94 % 0.00 in 0 W/m2
07:21 44.4 °F 42.8 °F 30.62 in Calm   -999.0 mph 94 % 0.00 in 0 W/m2
07:26 44.3 °F 42.4 °F 30.63 in West 1.0 mph -999.0 mph 93 % 0.00 in 0 W/m2
07:30 44.3 °F 42.4 °F 30.63 in West 1.0 mph 1.0 mph 93 % 0.00 in 0 W/m2
07:31 44.3 °F 42.4 °F 30.63 in West 1.0 mph -999.0 mph 93 % 0.00 in 0 W/m2
07:36 44.3 °F 42.4 °F 30.63 in West 1.0 mph -999.0 mph 93 % 0.00 in 0 W/m2
07:40 44.2 °F 42.3 °F 30.63 in NW 2.0 mph 9.0 mph 93 % 0.00 in 0 W/m2
07:41 44.3 °F 42.4 °F 30.63 in West 1.0 mph -999.0 mph 93 % 0.00 in 0 W/m2
07:45 44.3 °F 42.4 °F 30.63 in NW 1.0 mph 9.0 mph 93 % 0.00 in 0 W/m2
07:46 44.3 °F 42.4 °F 30.63 in West 1.0 mph -999.0 mph 93 % 0.00 in 0 W/m2
07:50 44.4 °F 42.5 °F 30.63 in Calm   9.0 mph 93 % 0.00 in 0 W/m2
07:51 44.3 °F 42.4 °F 30.63 in West 1.0 mph -999.0 mph 93 % 0.00 in 0 W/m2
07:55 44.4 °F 42.5 °F 30.63 in Calm   9.0 mph 93 % 0.00 in 0 W/m2
07:56 44.4 °F 42.5 °F 30.64 in Calm   -999.0 mph 93 % 0.00 in 0 W/m2
08:00 44.4 °F 42.5 °F 30.64 in Calm   9.0 mph 93 % 0.00 in 0 W/m2
08:01 44.4 °F 42.5 °F 30.64 in Calm   -999.0 mph 93 % 0.00 in 0 W/m2
08:05 44.4 °F 42.5 °F 30.63 in Calm   9.0 mph 93 % 0.00 in 0 W/m2
08:06 44.4 °F 42.5 °F 30.64 in Calm   -999.0 mph 93 % 0.00 in 0 W/m2
08:11 44.4 °F 42.5 °F 30.64 in Calm   -999.0 mph 93 % 0.00 in 0 W/m2
08:15 44.4 °F 42.5 °F 30.64 in Calm   9.0 mph 93 % 0.00 in 0 W/m2
08:16 44.4 °F 42.5 °F 30.64 in Calm   -999.0 mph 93 % 0.00 in 0 W/m2
08:20 44.4 °F 42.5 °F 30.64 in Calm   9.0 mph 93 % 0.00 in 0 W/m2
08:21 44.4 °F 42.5 °F 30.64 in Calm   -999.0 mph 93 % 0.00 in 0 W/m2
08:25 44.4 °F 42.5 °F 30.64 in Calm   9.0 mph 93 % 0.00 in 0 W/m2
08:26 44.4 °F 42.5 °F 30.64 in Calm   -999.0 mph 93 % 0.00 in 0 W/m2
08:30 44.4 °F 42.5 °F 30.64 in Calm   9.0 mph 93 % 0.00 in 0 W/m2
08:31 44.4 °F 42.5 °F 30.64 in Calm   -999.0 mph 93 % 0.00 in 0 W/m2
08:35 44.4 °F 42.5 °F 30.64 in Calm   9.0 mph 93 % 0.00 in 0 W/m2
08:36 44.4 °F 42.5 °F 30.64 in Calm   -999.0 mph 93 % 0.00 in 0 W/m2
08:41 44.4 °F 42.5 °F 30.64 in Calm   -999.0 mph 93 % 0.00 in 2 W/m2
08:45 44.4 °F 42.5 °F 30.64 in Calm   9.0 mph 93 % 0.00 in 5 W/m2
08:46 44.4 °F 42.5 °F 30.64 in Calm   -999.0 mph 93 % 0.00 in 2 W/m2
08:51 44.4 °F 42.5 °F 30.64 in Calm   -999.0 mph 93 % 0.00 in 2 W/m2
08:55 44.3 °F 42.4 °F 30.64 in Calm   9.0 mph 93 % 0.00 in 5 W/m2
08:56 44.4 °F 42.5 °F 30.64 in Calm   -999.0 mph 93 % 0.00 in 5 W/m2
09:00 44.3 °F 42.4 °F 30.64 in Calm   9.0 mph 93 % 0.00 in 7 W/m2
09:01 44.4 °F 42.5 °F 30.64 in Calm   -999.0 mph 93 % 0.00 in 5 W/m2
09:05 44.3 °F 42.4 °F 30.64 in Calm   9.0 mph 93 % 0.00 in 7 W/m2
09:06 44.4 °F 42.5 °F 30.64 in Calm   -999.0 mph 93 % 0.00 in 5 W/m2
09:10 44.3 °F 42.4 °F 30.65 in Calm   9.0 mph 93 % 0.00 in 9 W/m2
09:11 44.3 °F 42.4 °F 30.64 in Calm   -999.0 mph 93 % 0.00 in 8 W/m2
09:15 44.3 °F 42.4 °F 30.64 in Calm   9.0 mph 93 % 0.00 in 9 W/m2
09:16 44.3 °F 42.4 °F 30.64 in Calm   -999.0 mph 93 % 0.00 in 8 W/m2
09:20 44.3 °F 42.4 °F 30.65 in Calm   9.0 mph 93 % 0.00 in 11 W/m2
09:21 44.3 °F 42.4 °F 30.64 in Calm   -999.0 mph 93 % 0.00 in 8 W/m2
09:25 44.3 °F 42.4 °F 30.64 in Calm   9.0 mph 93 % 0.00 in 11 W/m2
09:26 44.3 °F 42.4 °F 30.64 in Calm   -999.0 mph 93 % 0.00 in 11 W/m2
09:31 44.3 °F 42.4 °F 30.64 in Calm   -999.0 mph 93 % 0.00 in 11 W/m2
09:35 44.4 °F 42.5 °F 30.64 in Calm   9.0 mph 93 % 0.00 in 12 W/m2
09:36 44.3 °F 42.4 °F 30.64 in Calm   -999.0 mph 93 % 0.00 in 11 W/m2
09:40 44.3 °F 42.4 °F 30.64 in Calm   9.0 mph 93 % 0.00 in 14 W/m2
09:41 44.4 °F 42.5 °F 30.64 in Calm   -999.0 mph 93 % 0.00 in 13 W/m2
09:46 44.4 °F 42.5 °F 30.64 in Calm   -999.0 mph 93 % 0.00 in 13 W/m2
09:50 44.4 °F 42.5 °F 30.64 in Calm   9.0 mph 93 % 0.00 in 14 W/m2
09:51 44.4 °F 42.5 °F 30.64 in Calm   -999.0 mph 93 % 0.00 in 13 W/m2
09:55 44.4 °F 42.2 °F 30.64 in Calm   9.0 mph 92 % 0.00 in 16 W/m2
09:56 44.4 °F 42.2 °F 30.64 in Calm   -999.0 mph 92 % 0.00 in 16 W/m2
10:00 44.5 °F 42.3 °F 30.64 in Calm   9.0 mph 92 % 0.00 in 18 W/m2
10:01 44.4 °F 42.2 °F 30.64 in Calm   -999.0 mph 92 % 0.00 in 16 W/m2
10:05 44.6 °F 42.4 °F 30.64 in Calm   9.0 mph 92 % 0.00 in 16 W/m2
10:06 44.4 °F 42.2 °F 30.64 in Calm   -999.0 mph 92 % 0.00 in 16 W/m2
10:10 44.6 °F 42.4 °F 30.64 in Calm   9.0 mph 92 % 0.00 in 18 W/m2
10:11 44.6 °F 42.4 °F 30.64 in Calm   -999.0 mph 92 % 0.00 in 18 W/m2
10:15 44.7 °F 42.5 °F 30.64 in Calm   9.0 mph 92 % 0.00 in 18 W/m2
10:16 44.6 °F 42.4 °F 30.64 in Calm   -999.0 mph 92 % 0.00 in 18 W/m2
10:20 44.8 °F 42.6 °F 30.64 in Calm   9.0 mph 92 % 0.00 in 18 W/m2
10:21 44.6 °F 42.4 °F 30.64 in Calm   -999.0 mph 92 % 0.00 in 18 W/m2
10:25 44.8 °F 42.6 °F 30.64 in Calm   9.0 mph 92 % 0.00 in 19 W/m2
10:26 44.8 °F 42.6 °F 30.65 in Calm   -999.0 mph 92 % 0.00 in 19 W/m2
10:31 44.8 °F 42.6 °F 30.65 in Calm   -999.0 mph 92 % 0.00 in 19 W/m2
10:35 44.9 °F 42.4 °F 30.64 in Calm   9.0 mph 91 % 0.00 in 21 W/m2
10:36 44.8 °F 42.6 °F 30.65 in Calm   -999.0 mph 92 % 0.00 in 19 W/m2
10:40 44.9 °F 42.4 °F 30.64 in NW 2.0 mph 9.0 mph 91 % 0.00 in 21 W/m2
10:41 44.9 °F 42.4 °F 30.64 in NW 1.0 mph -999.0 mph 91 % 0.00 in 21 W/m2
10:45 45.0 °F 42.5 °F 30.64 in NW 1.0 mph 9.0 mph 91 % 0.00 in 23 W/m2
10:46 44.9 °F 42.4 °F 30.64 in NW 1.0 mph -999.0 mph 91 % 0.00 in 21 W/m2
10:50 45.1 °F 42.6 °F 30.65 in NW 1.0 mph 1.0 mph 91 % 0.00 in 21 W/m2
10:51 44.9 °F 42.4 °F 30.64 in NW 1.0 mph -999.0 mph 91 % 0.00 in 21 W/m2
10:55 45.2 °F 42.7 °F 30.64 in Calm   9.0 mph 91 % 0.00 in 25 W/m2
10:56 45.2 °F 42.7 °F 30.65 in Calm   -999.0 mph 91 % 0.00 in 23 W/m2
11:00 45.3 °F 42.8 °F 30.65 in Calm   9.0 mph 91 % 0.00 in 25 W/m2
11:01 45.2 °F 42.7 °F 30.65 in Calm   -999.0 mph 91 % 0.00 in 23 W/m2
11:05 45.3 °F 42.8 °F 30.64 in Calm   9.0 mph 91 % 0.00 in 25 W/m2
11:06 45.2 °F 42.7 °F 30.65 in Calm   -999.0 mph 91 % 0.00 in 23 W/m2
11:11 45.3 °F 42.8 °F 30.64 in Calm   -999.0 mph 91 % 0.00 in 25 W/m2
11:15 45.4 °F 42.9 °F 30.64 in Calm   9.0 mph 91 % 0.00 in 25 W/m2
11:16 45.3 °F 42.8 °F 30.64 in Calm   -999.0 mph 91 % 0.00 in 25 W/m2
11:20 45.4 °F 42.9 °F 30.64 in Calm   9.0 mph 91 % 0.00 in 25 W/m2
11:21 45.3 °F 42.8 °F 30.64 in Calm   -999.0 mph 91 % 0.00 in 25 W/m2
11:25 45.4 °F 42.9 °F 30.64 in Calm   9.0 mph 91 % 0.00 in 26 W/m2
11:26 45.4 °F 42.9 °F 30.64 in Calm   -999.0 mph 91 % 0.00 in 26 W/m2
11:30 45.5 °F 43.0 °F 30.64 in Calm   9.0 mph 91 % 0.00 in 26 W/m2
11:31 45.4 °F 42.9 °F 30.64 in Calm   -999.0 mph 91 % 0.00 in 26 W/m2
11:35 45.5 °F 43.0 °F 30.64 in Calm   9.0 mph 91 % 0.00 in 26 W/m2
11:36 45.4 °F 42.9 °F 30.64 in Calm   -999.0 mph 91 % 0.00 in 26 W/m2
11:40 45.5 °F 43.0 °F 30.64 in Calm   9.0 mph 91 % 0.00 in 28 W/m2
11:41 45.5 °F 43.0 °F 30.64 in Calm   -999.0 mph 91 % 0.00 in 27 W/m2
11:45 45.6 °F 43.1 °F 30.64 in Calm   9.0 mph 91 % 0.00 in 26 W/m2
11:46 45.5 °F 43.0 °F 30.64 in Calm   -999.0 mph 91 % 0.00 in 27 W/m2
11:51 45.5 °F 43.0 °F 30.64 in Calm   -999.0 mph 91 % 0.00 in 27 W/m2
11:55 45.6 °F 43.1 °F 30.64 in Calm   9.0 mph 91 % 0.00 in 26 W/m2
11:56 45.6 °F 42.8 °F 30.64 in Calm   -999.0 mph 90 % 0.00 in 26 W/m2
12:00 45.6 °F 42.8 °F 30.64 in Calm   9.0 mph 90 % 0.00 in 28 W/m2
12:01 45.6 °F 42.8 °F 30.64 in Calm   -999.0 mph 90 % 0.00 in 26 W/m2
12:05 45.6 °F 42.8 °F 30.64 in Calm   9.0 mph 90 % 0.00 in 26 W/m2
12:06 45.6 °F 42.8 °F 30.64 in Calm   -999.0 mph 90 % 0.00 in 26 W/m2
12:10 45.7 °F 42.9 °F 30.63 in Calm   9.0 mph 90 % 0.00 in 28 W/m2
12:11 45.7 °F 42.9 °F 30.63 in Calm   -999.0 mph 90 % 0.00 in 27 W/m2
12:15 45.7 °F 42.9 °F 30.63 in Calm   9.0 mph 90 % 0.00 in 28 W/m2
12:16 45.7 °F 42.9 °F 30.63 in Calm   -999.0 mph 90 % 0.00 in 27 W/m2
12:20 45.8 °F 43.0 °F 30.63 in Calm   9.0 mph 90 % 0.00 in 28 W/m2
12:21 45.7 °F 42.9 °F 30.63 in Calm   -999.0 mph 90 % 0.00 in 27 W/m2
12:25 45.8 °F 43.0 °F 30.63 in Calm   9.0 mph 90 % 0.00 in 28 W/m2
12:26 45.8 °F 43.0 °F 30.63 in Calm   -999.0 mph 90 % 0.00 in 28 W/m2
12:31 45.8 °F 43.0 °F 30.63 in Calm   -999.0 mph 90 % 0.00 in 28 W/m2
12:35 45.9 °F 43.1 °F 30.63 in Calm   9.0 mph 90 % 0.00 in 28 W/m2
12:36 45.8 °F 43.0 °F 30.63 in Calm   -999.0 mph 90 % 0.00 in 28 W/m2
12:40 45.9 °F 43.1 °F 30.62 in Calm   9.0 mph 90 % 0.00 in 26 W/m2
12:41 45.9 °F 42.8 °F 30.62 in NW 1.0 mph -999.0 mph 89 % 0.00 in 28 W/m2
12:45 45.9 °F 42.8 °F 30.62 in NW 1.0 mph 9.0 mph 89 % 0.00 in 30 W/m2
12:46 45.9 °F 42.8 °F 30.62 in NW 1.0 mph -999.0 mph 89 % 0.00 in 28 W/m2
12:50 45.9 °F 42.8 °F 30.62 in NW 1.0 mph 1.0 mph 89 % 0.00 in 28 W/m2
12:51 45.9 °F 42.8 °F 30.62 in NW 1.0 mph -999.0 mph 89 % 0.00 in 28 W/m2
12:55 45.9 °F 42.8 °F 30.62 in NW 2.0 mph 4.0 mph 89 % 0.00 in 28 W/m2
12:56 45.9 °F 42.8 °F 30.62 in NW 2.0 mph -999.0 mph 89 % 0.00 in 29 W/m2
13:00 45.9 °F 42.8 °F 30.62 in NW 3.0 mph 9.0 mph 89 % 0.00 in 28 W/m2
13:01 45.9 °F 42.8 °F 30.62 in NW 2.0 mph -999.0 mph 89 % 0.00 in 29 W/m2
13:05 45.9 °F 42.8 °F 30.62 in NW 2.0 mph 9.0 mph 89 % 0.00 in 26 W/m2
13:06 45.9 °F 42.8 °F 30.62 in NW 2.0 mph -999.0 mph 89 % 0.00 in 29 W/m2
13:10 45.9 °F 42.8 °F 30.62 in NW 1.0 mph 9.0 mph 89 % 0.00 in 28 W/m2
13:11 45.9 °F 42.8 °F 30.62 in NW 1.0 mph -999.0 mph 89 % 0.00 in 27 W/m2
13:16 45.9 °F 42.8 °F 30.62 in NW 1.0 mph -999.0 mph 89 % 0.00 in 27 W/m2
13:20 46.0 °F 42.9 °F 30.62 in Calm   9.0 mph 89 % 0.00 in 25 W/m2
13:21 45.9 °F 42.8 °F 30.62 in NW 1.0 mph -999.0 mph 89 % 0.00 in 27 W/m2
13:25 46.0 °F 42.9 °F 30.62 in NW 1.0 mph 9.0 mph 89 % 0.00 in 25 W/m2
13:26 46.0 °F 42.9 °F 30.61 in NW 1.0 mph -999.0 mph 89 % 0.00 in 24 W/m2
13:30 46.0 °F 42.9 °F 30.61 in NW 1.0 mph 1.0 mph 89 % 0.00 in 23 W/m2
13:31 46.0 °F 42.9 °F 30.61 in NW 1.0 mph -999.0 mph 89 % 0.00 in 24 W/m2
13:35 46.0 °F 42.9 °F 30.61 in NW 1.0 mph 9.0 mph 89 % 0.00 in 25 W/m2
13:36 46.0 °F 42.9 °F 30.61 in NW 1.0 mph -999.0 mph 89 % 0.00 in 24 W/m2
13:40 46.0 °F 42.9 °F 30.61 in NW 1.0 mph 9.0 mph 89 % 0.00 in 25 W/m2
13:41 46.0 °F 42.9 °F 30.61 in NW 1.0 mph -999.0 mph 89 % 0.00 in 25 W/m2
13:45 46.0 °F 42.9 °F 30.61 in Calm   9.0 mph 89 % 0.00 in 26 W/m2
13:46 46.0 °F 42.9 °F 30.61 in NW 1.0 mph -999.0 mph 89 % 0.00 in 25 W/m2
13:51 46.0 °F 42.9 °F 30.61 in NW 1.0 mph -999.0 mph 89 % 0.00 in 25 W/m2
13:55 46.0 °F 42.6 °F 30.60 in NW 2.0 mph 3.0 mph 88 % 0.00 in 23 W/m2
13:56 46.0 °F 42.9 °F 30.60 in NW 2.0 mph -999.0 mph 89 % 0.00 in 23 W/m2
14:00 45.9 °F 42.8 °F 30.60 in NW 2.0 mph 9.0 mph 89 % 0.00 in 21 W/m2
14:01 46.0 °F 42.9 °F 30.60 in NW 2.0 mph -999.0 mph 89 % 0.00 in 23 W/m2
14:05 46.0 °F 42.9 °F 30.60 in NW 1.0 mph 9.0 mph 89 % 0.00 in 21 W/m2
14:06 46.0 °F 42.9 °F 30.60 in NW 2.0 mph -999.0 mph 89 % 0.00 in 23 W/m2
14:10 46.0 °F 42.9 °F 30.60 in NW 1.0 mph 9.0 mph 89 % 0.00 in 19 W/m2
14:11 46.0 °F 42.6 °F 30.60 in NW 1.0 mph -999.0 mph 88 % 0.00 in 20 W/m2
14:15 46.0 °F 42.9 °F 30.60 in NW 2.0 mph 9.0 mph 89 % 0.00 in 19 W/m2
14:16 46.0 °F 42.6 °F 30.60 in NW 1.0 mph -999.0 mph 88 % 0.00 in 20 W/m2
14:20 46.0 °F 42.6 °F 30.60 in NW 2.0 mph 9.0 mph 88 % 0.00 in 19 W/m2
14:21 46.0 °F 42.6 °F 30.60 in NW 1.0 mph -999.0 mph 88 % 0.00 in 20 W/m2
14:25 46.0 °F 42.6 °F 30.60 in NW 2.0 mph 9.0 mph 88 % 0.00 in 19 W/m2
14:26 46.0 °F 42.9 °F 30.60 in NW 1.0 mph -999.0 mph 89 % 0.00 in 19 W/m2
14:30 46.0 °F 42.9 °F 30.60 in Calm   9.0 mph 89 % 0.00 in 18 W/m2
14:31 46.0 °F 42.9 °F 30.60 in NW 1.0 mph -999.0 mph 89 % 0.00 in 19 W/m2
14:36 46.0 °F 42.9 °F 30.60 in NW 1.0 mph -999.0 mph 89 % 0.00 in 19 W/m2
14:40 45.9 °F 42.5 °F 30.60 in NW 2.0 mph 2.0 mph 88 % 0.00 in 16 W/m2
14:41 45.9 °F 42.5 °F 30.60 in NW 2.0 mph -999.0 mph 88 % 0.00 in 16 W/m2
14:45 45.9 °F 42.5 °F 30.60 in NW 2.0 mph 9.0 mph 88 % 0.00 in 14 W/m2
14:46 45.9 °F 42.5 °F 30.60 in NW 2.0 mph -999.0 mph 88 % 0.00 in 16 W/m2
14:50 45.9 °F 42.5 °F 30.60 in NW 1.0 mph 1.0 mph 88 % 0.00 in 14 W/m2
14:51 45.9 °F 42.5 °F 30.60 in NW 2.0 mph -999.0 mph 88 % 0.00 in 16 W/m2
14:55 45.9 °F 42.5 °F 30.60 in Calm   9.0 mph 88 % 0.00 in 12 W/m2
14:56 45.9 °F 42.5 °F 30.60 in NW 1.0 mph -999.0 mph 88 % 0.00 in 14 W/m2
15:00 45.9 °F 42.5 °F 30.60 in NW 1.0 mph 1.0 mph 88 % 0.00 in 14 W/m2
15:01 45.9 °F 42.5 °F 30.60 in NW 1.0 mph -999.0 mph 88 % 0.00 in 14 W/m2
15:05 45.9 °F 42.5 °F 30.60 in NW 1.0 mph 9.0 mph 88 % 0.00 in 12 W/m2
15:06 45.9 °F 42.5 °F 30.60 in NW 1.0 mph -999.0 mph 88 % 0.00 in 14 W/m2
15:10 45.9 °F 42.5 °F 30.60 in NW 1.0 mph 9.0 mph 88 % 0.00 in 11 W/m2
15:11 45.9 °F 42.5 °F 30.60 in NW 1.0 mph -999.0 mph 88 % 0.00 in 11 W/m2
15:16 45.9 °F 42.5 °F 30.60 in NW 1.0 mph -999.0 mph 88 % 0.00 in 11 W/m2
15:20 45.8 °F 42.4 °F 30.60 in NW 1.0 mph 1.0 mph 88 % 0.00 in 9 W/m2
15:21 45.9 °F 42.5 °F 30.60 in NW 1.0 mph -999.0 mph 88 % 0.00 in 11 W/m2
15:25 45.8 °F 42.4 °F 30.60 in Calm   9.0 mph 88 % 0.00 in 9 W/m2
15:26 45.8 °F 42.7 °F 30.60 in Calm   -999.0 mph 89 % 0.00 in 9 W/m2
15:30 45.8 °F 42.7 °F 30.60 in NW 1.0 mph 9.0 mph 89 % 0.00 in 7 W/m2
15:31 45.8 °F 42.7 °F 30.60 in Calm   -999.0 mph 89 % 0.00 in 9 W/m2
15:35 45.8 °F 42.7 °F 30.60 in NW 1.0 mph 9.0 mph 89 % 0.00 in 7 W/m2
15:36 45.8 °F 42.7 °F 30.60 in Calm   -999.0 mph 89 % 0.00 in 9 W/m2
15:40 45.7 °F 42.6 °F 30.60 in NW 2.0 mph 9.0 mph 89 % 0.00 in 7 W/m2
15:41 45.8 °F 42.4 °F 30.60 in NW 2.0 mph -999.0 mph 88 % 0.00 in 6 W/m2
15:45 45.7 °F 42.3 °F 30.60 in NW 2.0 mph 9.0 mph 88 % 0.00 in 5 W/m2
15:46 45.8 °F 42.4 °F 30.60 in NW 2.0 mph -999.0 mph 88 % 0.00 in 6 W/m2
15:51 45.8 °F 42.4 °F 30.60 in NW 2.0 mph -999.0 mph 88 % 0.00 in 6 W/m2
15:55 45.6 °F 42.3 °F 30.60 in NW 1.0 mph 9.0 mph 88 % 0.00 in 0 W/m2
15:56 45.6 °F 42.3 °F 30.60 in Calm   -999.0 mph 88 % 0.00 in 1 W/m2
16:00 45.6 °F 42.3 °F 30.60 in Calm   9.0 mph 88 % 0.00 in 0 W/m2
16:01 45.6 °F 42.3 °F 30.60 in Calm   -999.0 mph 88 % 0.00 in 1 W/m2
16:05 45.5 °F 42.2 °F 30.60 in Calm   9.0 mph 88 % 0.00 in 0 W/m2
16:06 45.6 °F 42.3 °F 30.60 in Calm   -999.0 mph 88 % 0.00 in 1 W/m2
16:10 45.5 °F 42.2 °F 30.60 in Calm   9.0 mph 88 % 0.00 in 0 W/m2
16:11 45.5 °F 42.2 °F 30.60 in Calm   -999.0 mph 88 % 0.00 in 0 W/m2
16:15 45.5 °F 42.4 °F 30.60 in Calm   9.0 mph 89 % 0.00 in 0 W/m2
16:16 45.5 °F 42.2 °F 30.60 in Calm   -999.0 mph 88 % 0.00 in 0 W/m2
16:20 45.5 °F 42.2 °F 30.60 in Calm   9.0 mph 88 % 0.00 in 0 W/m2
16:21 45.5 °F 42.2 °F 30.60 in Calm   -999.0 mph 88 % 0.00 in 0 W/m2
16:25 45.4 °F 42.1 °F 30.60 in NW 1.0 mph 9.0 mph 88 % 0.00 in 0 W/m2
16:26 45.4 °F 42.1 °F 30.60 in Calm   -999.0 mph 88 % 0.00 in 0 W/m2
16:31 45.4 °F 42.1 °F 30.60 in Calm   -999.0 mph 88 % 0.00 in 0 W/m2
16:35 45.3 °F 42.0 °F 30.60 in Calm   9.0 mph 88 % 0.00 in 0 W/m2
16:36 45.4 °F 42.1 °F 30.60 in Calm   -999.0 mph 88 % 0.00 in 0 W/m2
16:40 45.3 °F 42.0 °F 30.60 in NW 1.0 mph 1.0 mph 88 % 0.00 in 0 W/m2
16:41 45.3 °F 42.0 °F 30.60 in Calm   -999.0 mph 88 % 0.00 in 0 W/m2
16:45 45.3 °F 42.0 °F 30.60 in NW 1.0 mph 9.0 mph 88 % 0.00 in 0 W/m2
16:46 45.3 °F 42.0 °F 30.60 in Calm   -999.0 mph 88 % 0.00 in 0 W/m2
16:50 45.3 °F 42.0 °F 30.60 in Calm   9.0 mph 88 % 0.00 in 0 W/m2
16:51 45.3 °F 42.0 °F 30.60 in Calm   -999.0 mph 88 % 0.00 in 0 W/m2
16:55 45.3 °F 42.2 °F 30.60 in Calm   9.0 mph 89 % 0.00 in 0 W/m2
16:56 45.3 °F 42.2 °F 30.60 in Calm   -999.0 mph 89 % 0.00 in 0 W/m2
17:00 45.3 °F 42.2 °F 30.60 in Calm   9.0 mph 89 % 0.00 in 0 W/m2
17:01 45.3 °F 42.2 °F 30.60 in Calm   -999.0 mph 89 % 0.00 in 0 W/m2
17:05 45.2 °F 42.2 °F 30.60 in Calm   9.0 mph 89 % 0.00 in 0 W/m2
17:06 45.3 °F 42.2 °F 30.60 in Calm   -999.0 mph 89 % 0.00 in 0 W/m2
17:11 45.2 °F 42.2 °F 30.60 in Calm   -999.0 mph 89 % 0.00 in 0 W/m2
17:15 45.1 °F 42.1 °F 30.60 in NW 1.0 mph 9.0 mph 89 % 0.00 in 0 W/m2
17:16 45.2 °F 42.2 °F 30.60 in Calm   -999.0 mph 89 % 0.00 in 0 W/m2
17:20 45.1 °F 42.1 °F 30.60 in NW 1.0 mph 9.0 mph 89 % 0.00 in 0 W/m2
17:21 45.2 °F 42.2 °F 30.60 in Calm   -999.0 mph 89 % 0.00 in 0 W/m2
17:25 45.0 °F 41.7 °F 30.60 in NW 2.0 mph 9.0 mph 88 % 0.00 in 0 W/m2
17:26 45.1 °F 41.5 °F 30.60 in NW 1.0 mph -999.0 mph 87 % 0.00 in 0 W/m2
17:30 45.1 °F 41.5 °F 30.60 in NW 1.0 mph 1.0 mph 87 % 0.00 in 0 W/m2
17:31 45.1 °F 41.5 °F 30.60 in NW 1.0 mph -999.0 mph 87 % 0.00 in 0 W/m2
17:35 45.1 °F 41.5 °F 30.60 in Calm   9.0 mph 87 % 0.00 in 0 W/m2
17:36 45.1 °F 41.5 °F 30.60 in NW 1.0 mph -999.0 mph 87 % 0.00 in 0 W/m2
17:40 45.1 °F 41.5 °F 30.60 in Calm   9.0 mph 87 % 0.00 in 0 W/m2
17:41 45.1 °F 41.8 °F 30.60 in Calm   -999.0 mph 88 % 0.00 in 0 W/m2
17:45 45.1 °F 41.8 °F 30.60 in Calm   9.0 mph 88 % 0.00 in 0 W/m2
17:46 45.1 °F 41.8 °F 30.60 in Calm   -999.0 mph 88 % 0.00 in 0 W/m2
17:51 45.1 °F 41.8 °F 30.60 in Calm   -999.0 mph 88 % 0.00 in 0 W/m2
17:55 45.1 °F 41.8 °F 30.60 in Calm   9.0 mph 88 % 0.00 in 0 W/m2
17:56 45.1 °F 41.8 °F 30.59 in Calm   -999.0 mph 88 % 0.00 in 0 W/m2
18:00 45.0 °F 41.7 °F 30.60 in Calm   9.0 mph 88 % 0.00 in 0 W/m2
18:01 45.1 °F 41.8 °F 30.59 in Calm   -999.0 mph 88 % 0.00 in 0 W/m2
18:05 45.0 °F 41.7 °F 30.59 in NW 1.0 mph 9.0 mph 88 % 0.00 in 0 W/m2
18:06 45.1 °F 41.8 °F 30.59 in Calm   -999.0 mph 88 % 0.00 in 0 W/m2
18:10 45.0 °F 41.7 °F 30.59 in NW 1.0 mph 9.0 mph 88 % 0.00 in 0 W/m2
18:11 45.0 °F 41.7 °F 30.60 in NW 1.0 mph -999.0 mph 88 % 0.00 in 0 W/m2
18:15 45.0 °F 41.7 °F 30.60 in NW 2.0 mph 9.0 mph 88 % 0.00 in 0 W/m2
18:16 45.0 °F 41.7 °F 30.60 in NW 1.0 mph -999.0 mph 88 % 0.00 in 0 W/m2
18:20 45.0 °F 41.7 °F 30.59 in NW 1.0 mph 9.0 mph 88 % 0.00 in 0 W/m2
18:21 45.0 °F 41.7 °F 30.60 in NW 1.0 mph -999.0 mph 88 % 0.00 in 0 W/m2
18:25 45.0 °F 41.7 °F 30.59 in NW 1.0 mph 9.0 mph 88 % 0.00 in 0 W/m2
18:26 45.0 °F 41.7 °F 30.60 in Calm   -999.0 mph 88 % 0.00 in 0 W/m2
18:31 45.0 °F 41.7 °F 30.60 in Calm   -999.0 mph 88 % 0.00 in 0 W/m2
18:35 45.0 °F 41.7 °F 30.60 in Calm   9.0 mph 88 % 0.00 in 0 W/m2
18:36 45.0 °F 41.7 °F 30.60 in Calm   -999.0 mph 88 % 0.00 in 0 W/m2
18:40 44.9 °F 41.6 °F 30.60 in Calm   9.0 mph 88 % 0.00 in 0 W/m2
18:41 44.9 °F 41.6 °F 30.60 in Calm   -999.0 mph 88 % 0.00 in 0 W/m2
18:46 44.9 °F 41.6 °F 30.60 in Calm   -999.0 mph 88 % 0.00 in 0 W/m2
18:50 44.8 °F 41.5 °F 30.60 in Calm   9.0 mph 88 % 0.00 in 0 W/m2
18:51 44.9 °F 41.6 °F 30.60 in Calm   -999.0 mph 88 % 0.00 in 0 W/m2
18:56 44.8 °F 41.5 °F 30.60 in Calm   -999.0 mph 88 % 0.00 in 0 W/m2
19:00 44.8 °F 41.5 °F 30.60 in Calm   9.0 mph 88 % 0.00 in 0 W/m2
19:01 44.8 °F 41.5 °F 30.60 in Calm   -999.0 mph 88 % 0.00 in 0 W/m2
19:06 44.8 °F 41.5 °F 30.60 in Calm   -999.0 mph 88 % 0.00 in 0 W/m2
19:10 44.8 °F 41.5 °F 30.60 in NW 1.0 mph 9.0 mph 88 % 0.00 in 0 W/m2
19:11 44.8 °F 41.5 °F 30.60 in NW 1.0 mph -999.0 mph 88 % 0.00 in 0 W/m2
19:16 44.8 °F 41.5 °F 30.60 in NW 1.0 mph -999.0 mph 88 % 0.00 in 0 W/m2
19:20 44.7 °F 41.4 °F 30.60 in NW 2.0 mph 2.0 mph 88 % 0.00 in 0 W/m2
19:21 44.8 °F 41.5 °F 30.60 in NW 1.0 mph -999.0 mph 88 % 0.00 in 0 W/m2
19:25 44.7 °F 41.4 °F 30.60 in Calm   9.0 mph 88 % 0.00 in 0 W/m2
19:26 44.7 °F 41.4 °F 30.61 in Calm   -999.0 mph 88 % 0.00 in 0 W/m2
19:30 44.8 °F 41.5 °F 30.61 in Calm   9.0 mph 88 % 0.00 in 0 W/m2
19:31 44.7 °F 41.4 °F 30.61 in Calm   -999.0 mph 88 % 0.00 in 0 W/m2
19:35 44.7 °F 41.4 °F 30.61 in Calm   9.0 mph 88 % 0.00 in 0 W/m2
19:36 44.7 °F 41.4 °F 30.61 in Calm   -999.0 mph 88 % 0.00 in 0 W/m2
19:40 44.7 °F 41.4 °F 30.61 in Calm   9.0 mph 88 % 0.00 in 0 W/m2
19:41 44.7 °F 41.4 °F 30.61 in Calm   -999.0 mph 88 % 0.00 in 0 W/m2
19:45 44.7 °F 41.4 °F 30.61 in Calm   9.0 mph 88 % 0.00 in 0 W/m2
19:46 44.7 °F 41.4 °F 30.61 in Calm   -999.0 mph 88 % 0.00 in 0 W/m2
19:50 44.7 °F 41.4 °F 30.61 in Calm   9.0 mph 88 % 0.00 in 0 W/m2
19:51 44.7 °F 41.4 °F 30.61 in Calm   -999.0 mph 88 % 0.00 in 0 W/m2
19:55 44.7 °F 41.4 °F 30.61 in Calm   9.0 mph 88 % 0.00 in 0 W/m2
19:56 44.7 °F 41.4 °F 30.61 in Calm   -999.0 mph 88 % 0.00 in 0 W/m2
20:01 44.7 °F 41.4 °F 30.61 in Calm   -999.0 mph 88 % 0.00 in 0 W/m2
20:05 44.7 °F 41.4 °F 30.60 in Calm   9.0 mph 88 % 0.00 in 0 W/m2
20:06 44.7 °F 41.4 °F 30.61 in Calm   -999.0 mph 88 % 0.00 in 0 W/m2
20:10 44.6 °F 41.3 °F 30.61 in NW 1.0 mph 1.0 mph 88 % 0.00 in 0 W/m2
20:11 44.7 °F 41.1 °F 30.61 in NW 1.0 mph -999.0 mph 87 % 0.00 in 0 W/m2
20:15 44.7 °F 41.4 °F 30.61 in NW 1.0 mph 9.0 mph 88 % 0.00 in 0 W/m2
20:16 44.7 °F 41.1 °F 30.61 in NW 1.0 mph -999.0 mph 87 % 0.00 in 0 W/m2
20:21 44.7 °F 41.1 °F 30.61 in NW 1.0 mph -999.0 mph 87 % 0.00 in 0 W/m2
20:25 44.8 °F 41.2 °F 30.61 in Calm   9.0 mph 87 % 0.00 in 0 W/m2
20:26 44.7 °F 41.1 °F 30.61 in Calm   -999.0 mph 87 % 0.00 in 0 W/m2
20:30 44.8 °F 41.2 °F 30.61 in NW 1.0 mph 1.0 mph 87 % 0.00 in 0 W/m2
20:31 44.7 °F 41.1 °F 30.61 in Calm   -999.0 mph 87 % 0.00 in 0 W/m2
20:35 44.8 °F 40.9 °F 30.60 in NW 1.0 mph 9.0 mph 86 % 0.00 in 0 W/m2
20:36 44.7 °F 41.1 °F 30.61 in Calm   -999.0 mph 87 % 0.00 in 0 W/m2
20:40 44.8 °F 40.9 °F 30.61 in Calm   9.0 mph 86 % 0.00 in 0 W/m2
20:41 44.8 °F 40.9 °F 30.61 in Calm   -999.0 mph 86 % 0.00 in 0 W/m2
20:45 44.8 °F 40.9 °F 30.61 in Calm   9.0 mph 86 % 0.00 in 0 W/m2
20:46 44.8 °F 40.9 °F 30.61 in Calm   -999.0 mph 86 % 0.00 in 0 W/m2
20:51 44.8 °F 40.9 °F 30.61 in Calm   -999.0 mph 86 % 0.00 in 0 W/m2
20:55 44.7 °F 41.4 °F 30.61 in Calm   9.0 mph 88 % 0.00 in 0 W/m2
20:56 44.8 °F 41.5 °F 30.60 in Calm   -999.0 mph 88 % 0.00 in 0 W/m2
21:01 44.8 °F 41.5 °F 30.60 in Calm   -999.0 mph 88 % 0.00 in 0 W/m2
21:05 44.6 °F 41.3 °F 30.60 in Calm   9.0 mph 88 % 0.00 in 0 W/m2
21:06 44.8 °F 41.5 °F 30.60 in Calm   -999.0 mph 88 % 0.00 in 0 W/m2
21:10 44.6 °F 41.3 °F 30.60 in Calm   9.0 mph 88 % 0.00 in 0 W/m2
21:11 44.6 °F 41.6 °F 30.60 in Calm   -999.0 mph 89 % 0.00 in 0 W/m2
21:15 44.5 °F 41.5 °F 30.60 in Calm   9.0 mph 89 % 0.00 in 0 W/m2
21:16 44.6 °F 41.6 °F 30.60 in Calm   -999.0 mph 89 % 0.00 in 0 W/m2
21:20 44.4 °F 41.4 °F 30.60 in Calm   9.0 mph 89 % 0.00 in 0 W/m2
21:21 44.6 °F 41.6 °F 30.60 in Calm   -999.0 mph 89 % 0.00 in 0 W/m2
21:25 44.4 °F 41.4 °F 30.60 in Calm   9.0 mph 89 % 0.00 in 0 W/m2
21:26 44.4 °F 41.1 °F 30.61 in NW 1.0 mph -999.0 mph 88 % 0.00 in 0 W/m2
21:30 44.3 °F 41.0 °F 30.61 in NW 1.0 mph 1.0 mph 88 % 0.00 in 0 W/m2
21:31 44.4 °F 41.1 °F 30.61 in NW 1.0 mph -999.0 mph 88 % 0.00 in 0 W/m2
21:35 44.3 °F 41.3 °F 30.60 in NW 1.0 mph 9.0 mph 89 % 0.00 in 0 W/m2
21:36 44.4 °F 41.1 °F 30.61 in NW 1.0 mph -999.0 mph 88 % 0.00 in 0 W/m2
21:40 44.3 °F 41.3 °F 30.60 in Calm   9.0 mph 89 % 0.00 in 0 W/m2
21:41 44.3 °F 41.3 °F 30.60 in Calm   -999.0 mph 89 % 0.00 in 0 W/m2
21:46 44.3 °F 41.3 °F 30.60 in Calm   -999.0 mph 89 % 0.00 in 0 W/m2
21:50 44.3 °F 41.3 °F 30.60 in Calm   9.0 mph 89 % 0.00 in 0 W/m2
21:51 44.3 °F 41.3 °F 30.60 in Calm   -999.0 mph 89 % 0.00 in 0 W/m2
21:55 44.3 °F 41.3 °F 30.60 in Calm   9.0 mph 89 % 0.00 in 0 W/m2
21:56 44.3 °F 41.3 °F 30.60 in Calm   -999.0 mph 89 % 0.00 in 0 W/m2
22:00 44.2 °F 41.2 °F 30.60 in Calm   9.0 mph 89 % 0.00 in 0 W/m2
22:01 44.3 °F 41.3 °F 30.60 in Calm   -999.0 mph 89 % 0.00 in 0 W/m2
22:05 44.2 °F 41.2 °F 30.60 in Calm   9.0 mph 89 % 0.00 in 0 W/m2
22:06 44.3 °F 41.3 °F 30.60 in Calm   -999.0 mph 89 % 0.00 in 0 W/m2
22:10 44.1 °F 41.1 °F 30.60 in Calm   9.0 mph 89 % 0.00 in 0 W/m2
22:11 44.1 °F 41.1 °F 30.60 in Calm   -999.0 mph 89 % 0.00 in 0 W/m2
22:15 44.1 °F 41.1 °F 30.60 in Calm   9.0 mph 89 % 0.00 in 0 W/m2
22:16 44.1 °F 41.1 °F 30.60 in Calm   -999.0 mph 89 % 0.00 in 0 W/m2
22:20 44.1 °F 41.1 °F 30.60 in Calm   9.0 mph 89 % 0.00 in 0 W/m2
22:21 44.1 °F 41.1 °F 30.60 in Calm   -999.0 mph 89 % 0.00 in 0 W/m2
22:25 44.0 °F 41.0 °F 30.60 in Calm   9.0 mph 89 % 0.00 in 0 W/m2
22:26 44.0 °F 41.0 °F 30.60 in Calm   -999.0 mph 89 % 0.00 in 0 W/m2
22:30 44.0 °F 41.0 °F 30.60 in Calm   9.0 mph 89 % 0.00 in 0 W/m2
22:31 44.0 °F 41.0 °F 30.60 in Calm   -999.0 mph 89 % 0.00 in 0 W/m2
22:36 44.0 °F 41.0 °F 30.60 in Calm   -999.0 mph 89 % 0.00 in 0 W/m2
22:40 44.1 °F 41.1 °F 30.60 in Calm   9.0 mph 89 % 0.00 in 0 W/m2
22:41 44.0 °F 41.0 °F 30.60 in Calm   -999.0 mph 89 % 0.00 in 0 W/m2
22:45 44.1 °F 41.1 °F 30.61 in Calm   9.0 mph 89 % 0.00 in 0 W/m2
22:46 44.0 °F 41.0 °F 30.60 in Calm   -999.0 mph 89 % 0.00 in 0 W/m2
22:50 44.1 °F 41.1 °F 30.60 in Calm   9.0 mph 89 % 0.00 in 0 W/m2
22:51 44.0 °F 41.0 °F 30.60 in Calm   -999.0 mph 89 % 0.00 in 0 W/m2
22:55 44.0 °F 41.0 °F 30.60 in Calm   9.0 mph 89 % 0.00 in 0 W/m2
22:56 44.1 °F 41.1 °F 30.60 in Calm   -999.0 mph 89 % 0.00 in 0 W/m2
23:00 44.1 °F 41.1 °F 30.60 in Calm   9.0 mph 89 % 0.00 in 0 W/m2
23:01 44.1 °F 41.1 °F 30.60 in Calm   -999.0 mph 89 % 0.00 in 0 W/m2
23:05 44.0 °F 41.0 °F 30.60 in Calm   9.0 mph 89 % 0.00 in 0 W/m2
23:06 44.1 °F 41.1 °F 30.60 in Calm   -999.0 mph 89 % 0.00 in 0 W/m2
23:10 43.9 °F 40.9 °F 30.60 in Calm   9.0 mph 89 % 0.00 in 0 W/m2
23:11 44.0 °F 41.0 °F 30.60 in Calm   -999.0 mph 89 % 0.00 in 0 W/m2
23:15 43.9 °F 40.9 °F 30.60 in Calm   9.0 mph 89 % 0.00 in 0 W/m2
23:16 44.0 °F 41.0 °F 30.60 in Calm   -999.0 mph 89 % 0.00 in 0 W/m2
23:20 43.8 °F 41.1 °F 30.60 in Calm   9.0 mph 90 % 0.00 in 0 W/m2
23:21 44.0 °F 41.0 °F 30.60 in Calm   -999.0 mph 89 % 0.00 in 0 W/m2
23:25 43.8 °F 41.1 °F 30.60 in Calm   9.0 mph 90 % 0.00 in 0 W/m2
23:26 43.8 °F 41.1 °F 30.60 in Calm   -999.0 mph 90 % 0.00 in 0 W/m2
23:31 43.8 °F 41.1 °F 30.60 in Calm   -999.0 mph 90 % 0.00 in 0 W/m2
23:35 43.8 °F 41.1 °F 30.60 in Calm   9.0 mph 90 % 0.00 in 0 W/m2
23:36 43.8 °F 41.1 °F 30.60 in Calm   -999.0 mph 90 % 0.00 in 0 W/m2
23:40 43.7 °F 41.0 °F 30.60 in Calm   9.0 mph 90 % 0.00 in 0 W/m2
23:41 43.7 °F 41.0 °F 30.60 in Calm   -999.0 mph 90 % 0.00 in 0 W/m2
23:45 43.7 °F 41.0 °F 30.60 in Calm   9.0 mph 90 % 0.00 in 0 W/m2
23:46 43.7 °F 41.0 °F 30.60 in Calm   -999.0 mph 90 % 0.00 in 0 W/m2
23:50 43.7 °F 41.0 °F 30.60 in Calm   9.0 mph 90 % 0.00 in 0 W/m2
23:51 43.7 °F 41.0 °F 30.60 in Calm   -999.0 mph 90 % 0.00 in 0 W/m2
23:55 43.6 °F 40.9 °F 30.60 in Calm   9.0 mph 90 % 0.00 in 0 W/m2
23:56 43.6 °F 40.9 °F 30.60 in Calm   -999.0 mph 90 % 0.00 in 0 W/m2
Delerius-Weather
Compliments of Weather Underground - 3.75 mb

Data updates at regular intervals.